Flag for Germany Weather past 2 weeks in Friesoythe, Lower Saxony, Germany

Now
41 °F

Quite cool.


Feels Like: 37 °F
Forecast: 37 / 44 °F
Wind: 6 mph from South

Location: Meppen-Mil

Current Time: Mar 1, 2015 at 9:56:15 PM

Latest Report: Mar 1, 2015 at 9:20 PM


Visibility: N/A

Pressure: 29.47 "Hg

Humidity: 76%

Dew point: 34 °F

Location of FriesoytheLocation

Historic Weather in Friesoythe — Graph

°F

Friesoythe temperature yesterday

Maximum temperature yesterday: 46 °F (at 2:20 PM)
Minimum temperature yesterday: 30 °F (at 12:20 AM)
Average temperature yesterday: 38 °F

Past Weeks' High & Low Weather Summary

 TemperatureHumidityPressure
High50 °F (Mar 1, 12:20 PM)100% (Feb 16, 7:20 AM)30.72 "Hg (Feb 16, 7:20 AM)
Low25 °F (Feb 17, 1:20 AM)49% (Mar 1, 12:20 AM)29.27 "Hg (Feb 21, 6:20 AM)
Average38 °F83%29.92 "Hg
* Reported Feb 14 8:20 PM — Mar 1 8:20 PM, Friesoythe, Weather by CustomWeather, © 2015

Note: Actual official high and low records may vary slightly from our data, if they occured in-between our weather recording intervals... More about our weather records

Advertising

Friesoythe weather history for previous 24 hours

 ConditionsComfort  
Time TempWeatherWind HumidityBarometerVisibility
8:20 PM
Sun, Mar 1
41 °FQuite cool.7 mph76%29.50 "HgN/A
7:20 PM43 °FQuite cool.6 mph71%29.50 "HgN/A
6:20 PM45 °FQuite cool.8 mph66%29.53 "HgN/A
5:20 PM46 °FCool.13 mph62%29.53 "HgN/A
4:20 PM48 °FCool.15 mph62%29.53 "HgN/A
3:20 PM48 °FCool.17 mph62%29.50 "HgN/A
2:20 PM48 °FCool.15 mph62%29.50 "HgN/A
1:20 PM48 °FCool.15 mph71%29.50 "HgN/A
12:20 PM50 °FCool.18 mph58%29.47 "HgN/A
11:20 AM48 °FCool.13 mph71%29.47 "HgN/A
10:20 AM48 °FCool.17 mph82%29.47 "Hg6 mi
9:20 AM45 °FQuite cool.14 mph93%29.45 "HgN/A
8:20 AM43 °FQuite cool.14 mph93%29.45 "HgN/A
7:20 AM41 °FQuite cool.14 mph93%29.45 "Hg6 mi
6:20 AM41 °FQuite cool.13 mph87%29.45 "Hg2 mi
5:20 AM41 °FQuite cool.14 mph81%29.47 "Hg2 mi
4:20 AM43 °FQuite cool.15 mph66%29.47 "HgN/A
3:20 AM43 °FQuite cool.14 mph66%29.53 "HgN/A
2:20 AM43 °FQuite cool.14 mph61%29.59 "Hg6 mi
1:20 AM45 °FQuite cool.13 mph49%29.62 "HgN/A
12:20 AM45 °FQuite cool.13 mph49%29.68 "HgN/A
11:20 PM
Sat, Feb 28
43 °FQuite cool.10 mph57%29.71 "HgN/A
10:20 PM43 °FQuite cool.12 mph57%29.74 "HgN/A
9:20 PM43 °FQuite cool.13 mph57%29.77 "HgN/A
Weather by CustomWeather, © 2015

See weather overviewHow to use our weather pages